Weather History for Hyannis, MA

Change the Weather History Date:

Tuesday, December 4, 2012

  Actual Average Record
Temperature  
Mean Temperature 42 °F -  
Max Temperature 54 °F 46 °F 66 °F (1998)
Min Temperature 30 °F 29 °F 7 °F (1940)
Degree Days  
Heating Degree Days 23    
Moisture  
Dew Point 37 °F    
Average Humidity 95    
Maximum Humidity 100    
Minimum Humidity 80    
Precipitation  
Precipitation 0.00 in - - ()
Sea Level Pressure  
Sea Level Pressure 30.26 in    
Wind  
Wind Speed 1 mph (South)    
Max Wind Speed 14 mph    
Max Gust Speed 17 mph    
Visibility 4 miles    
Events Fog , Rain    
Averages and records for this station are not official NWS values.
T = Trace of Precipitation, MM = Missing Value Source: NWS Daily Summary

Daily Weather History Graph

Daily Weather History Graph

Search for Another Location

Airport:

Trip Planner

Search our weather history database for the weather conditions in past years. The results will help you decide how hot, cold, wet, or windy it might be!

Date:

Astronomy

Dec. 04, 2012 Rise Set
Actual Time 6:52 AM EST 4:10 PM EST
Civil Twilight 6:20 AM EST 4:42 PM EST
Nautical Twilight 5:46 AM EST 5:16 PM EST
Astronomical Twilight 5:12 AM EST 5:50 PM EST
Moon 9:58 PM EST (12/4) 10:41 AM EST (12/4)
Length of Visible Light 10h 21m
Length of Day
9h 18m
Waning Gibbous, 69% of the Moon is Illuminated
Dec 4
Waning Gibbous
Dec 6
Last Quarter
Dec 13
New
Dec 20
First Quarter
Dec 28
Full

Hourly Weather History & Observations

Time (EST) Temp. Windchill Dew Point Humidity Pressure Visibility Wind Dir Wind Speed Gust Speed Precip Events Conditions
12:13 AM 33.8 °F - 30.2 °F 87% 30.28 in 4.0 mi Calm Calm - N/A   Overcast
12:15 AM 33.8 °F - 32.0 °F 93% 30.28 in 1.5 mi Calm Calm - N/A   Overcast
12:20 AM 32.0 °F - 30.2 °F 93% 30.29 in 0.2 mi Calm Calm - N/A Fog Fog
12:39 AM 32.0 °F - 30.2 °F 93% 30.28 in 0.5 mi Calm Calm - N/A Fog Fog
12:56 AM 32.0 °F - 30.9 °F 96% 30.29 in 0.2 mi Calm Calm - N/A Fog Fog
1:22 AM 32.0 °F - 32.0 °F 100% 30.28 in 0.5 mi Calm Calm - N/A Fog Fog
1:33 AM 30.2 °F - 30.2 °F 100% 30.28 in 2.0 mi Calm Calm - N/A   Overcast
1:41 AM 30.2 °F - 30.2 °F 100% 30.28 in 10.0 mi Calm Calm - N/A   Overcast
1:47 AM 32.0 °F - 30.2 °F 93% 30.28 in 1.8 mi Calm Calm - N/A   Overcast
1:54 AM 32.0 °F - 30.2 °F 93% 30.28 in 3.0 mi Calm Calm - N/A   Mostly Cloudy
1:56 AM 32.0 °F - 30.9 °F 96% 30.29 in 5.0 mi Calm Calm - N/A   Mostly Cloudy
2:27 AM 32.0 °F - 30.2 °F 93% 30.28 in 1.2 mi Calm Calm - N/A   Overcast
2:32 AM 32.0 °F - 30.2 °F 93% 30.28 in 0.2 mi Calm Calm - N/A Fog Fog
2:41 AM 32.0 °F - 30.2 °F 93% 30.29 in 1.0 mi Calm Calm - N/A   Mist
2:53 AM 30.2 °F - 30.2 °F 100% 30.29 in 0.8 mi Calm Calm - N/A   Mist
2:56 AM 30.0 °F - 30.0 °F 100% 30.29 in 1.2 mi Calm Calm - N/A   Overcast
3:00 AM 30.2 °F - 30.2 °F 100% 30.29 in 3.0 mi Calm Calm - N/A   Overcast
3:03 AM 32.0 °F - 30.2 °F 93% 30.29 in 1.8 mi Calm Calm - N/A   Overcast
3:09 AM 32.0 °F - 30.2 °F 93% 30.29 in 0.2 mi Calm Calm - N/A Fog Fog
3:27 AM 30.2 °F - 30.2 °F 100% 30.28 in 0.8 mi Calm Calm - N/A   Mist
3:48 AM 30.2 °F - 30.2 °F 100% 30.28 in 1.2 mi Calm Calm - N/A   Overcast
3:56 AM 30.9 °F - 30.9 °F 100% 30.29 in 1.2 mi Calm Calm - N/A   Overcast
4:01 AM 30.2 °F - 30.2 °F 100% 30.28 in 0.5 mi Calm Calm - N/A Fog Light Freezing Fog
4:41 AM 30.2 °F - 30.2 °F 100% 30.29 in 0.2 mi Calm Calm - N/A Fog Light Freezing Fog
4:56 AM 30.9 °F - 30.9 °F 100% 30.30 in 0.2 mi Calm Calm - N/A Fog Light Freezing Fog
5:37 AM 32.0 °F 28.7 °F 32.0 °F 100% 30.29 in 1.0 mi ESE 3.5 mph - N/A   Mist
5:56 AM 33.1 °F - 33.1 °F 100% 30.31 in 0.8 mi Calm Calm - N/A   Mist
6:16 AM 33.8 °F - 33.8 °F 100% 30.31 in 1.2 mi Calm Calm - N/A   Scattered Clouds
6:23 AM 33.8 °F - 33.8 °F 100% 30.31 in 0.8 mi Calm Calm - N/A   Mist
6:34 AM 32.0 °F - 32.0 °F 100% 30.31 in 0.2 mi Calm Calm - N/A Fog Fog
6:56 AM 33.1 °F - 32.0 °F 96% 30.32 in 0.2 mi Calm Calm - N/A Fog Fog
7:05 AM 32.0 °F - 32.0 °F 100% 30.32 in 0.2 mi Calm Calm - N/A Fog Fog
7:52 AM 41.0 °F - 39.2 °F 93% 30.33 in 10.0 mi Calm Calm - N/A   Scattered Clouds
7:56 AM 41.0 °F - 41.0 °F 100% 30.34 in 10.0 mi Calm Calm - N/A   Scattered Clouds
8:56 AM 48.0 °F - 46.9 °F 96% 30.32 in 10.0 mi SSE 5.8 mph - N/A   Clear
9:56 AM 50.0 °F - 46.9 °F 89% 30.31 in 10.0 mi SSE 9.2 mph - N/A   Clear
10:56 AM 52.0 °F - 46.9 °F 83% 30.29 in 10.0 mi South 8.1 mph - N/A   Clear
11:56 AM 54.0 °F - 48.0 °F 80% 30.27 in 10.0 mi South 11.5 mph 17.3 mph N/A   Overcast
12:56 PM 50.0 °F - 46.9 °F 89% 30.25 in 10.0 mi South 9.2 mph - N/A   Overcast
1:56 PM 50.0 °F - 46.9 °F 89% 30.23 in 10.0 mi SSW 9.2 mph - N/A   Overcast
2:56 PM 50.0 °F - 46.9 °F 89% 30.22 in 10.0 mi South 6.9 mph - N/A   Overcast
3:56 PM 51.1 °F - 48.0 °F 89% 30.21 in 10.0 mi South 5.8 mph - N/A   Overcast
4:56 PM 50.0 °F - 46.9 °F 89% 30.20 in 10.0 mi South 6.9 mph - 0.00 in Rain Light Rain
5:56 PM 48.9 °F - 46.9 °F 93% 30.19 in 10.0 mi South 4.6 mph - 0.00 in   Overcast
6:56 PM 48.9 °F - 46.9 °F 93% 30.17 in 10.0 mi South 3.5 mph - N/A   Mostly Cloudy
7:56 PM 50.0 °F - 48.0 °F 93% 30.15 in 10.0 mi South 4.6 mph - N/A   Scattered Clouds
8:56 PM 50.0 °F - 48.9 °F 96% 30.12 in 10.0 mi South 9.2 mph 17.3 mph N/A   Mostly Cloudy
9:56 PM 51.1 °F - 48.9 °F 92% 30.10 in 10.0 mi South 8.1 mph - N/A   Clear
10:56 PM 51.1 °F - 48.9 °F 92% 30.07 in 10.0 mi South 6.9 mph - N/A   Mostly Cloudy
11:56 PM 53.1 °F - 50.0 °F 89% 30.04 in 10.0 mi SSW 13.8 mph - N/A   Overcast